User: anonymous   Login
Location: Dürabuch
(48.2640°N, 11.2185°E)
Time: 06:54:20
(UTC+00:00)
Language:

Cosmos 2322 Rocket - Orbit

View from above orbital plane
View from above orbital plane
View from above satellite
View from above satellite

Ground track
Ground track

The orbit data is extracted from the following two-line orbital elements,

1 23705U 95058B   24194.90299801 -.00000088  00000-0 -20832-4 0  9999
2 23705  71.0218   9.8732 0014023 314.5865  45.4112 14.15348287482272
Epoch (UTC): 12 July 2024 21:40:19
Eccentricity: 0.0014023
inclination: 71.0218°
perigee height: 831 km
apogee height: 851 km
right ascension of ascending node: 9.8732°
argument of perigee: 314.5865°
revolutions per day: 14.15348287
mean anomaly at epoch: 45.4112°
orbit number at epoch: 48227

The dashed part of the orbit path shows where the satellite is in the earth's shadow,  

DLR